Regional Weather Roundup
Issued by NWS

Home | Current Version | Previous Version | Graphics & Text | Print | Product List | Glossary On
Versions: 1 2 3 4 5 6 7 8 9 10 11 12 13 14 15 16 17 18 19 20 21 22 23 24 25 26 27 28 29 30 31 32 33 34 35 36 37 38 39 40 41 42 43 44 45 46 47 48 49 50
000
ASUS43 KTOP 212159
RWRKS

WEATHER ROUNDUP FOR KANSAS
NATIONAL WEATHER SERVICE GOODLAND KS
500 PM CDT THU AUG 21 2014

NOTE:  "FAIR" INDICATES FEW OR NO CLOUDS BELOW 12,000 FEET WITH NO
SIGNIFICANT WEATHER AND/OR OBSTRUCTIONS TO VISIBILITY.

KSZ001>006-013>018-027>032-041>047-212300-
NORTHWEST KANSAS

CITY           SKY/WX    TMP DP  RH WIND       PRES   REMARKS
GOODLAND       SUNNY     95  48  20 N13G18    29.97S
HAYS           MOSUNNY  100  64  30 S17       29.82F HX 103
HILL CITY      SUNNY     98  62  30 VRB5      29.85S HX  99
RUSSELL        SUNNY     99  65  32 S17G30    29.81F HX 102
$$

KSZ061>065-074>080-084>089-212300-
SOUTHWEST KANSAS

CITY           SKY/WX    TMP DP  RH WIND       PRES   REMARKS
DODGE CITY     MOSUNNY   95  60  31 S18G28    29.86S THUNDER HX  95
ELKHART          N/A     96  56  26 W5          N/A
GARDEN CITY    SUNNY     95  58  28 MISG      29.87F
GREAT BEND     SUNNY    100  64  30 S23       29.83S HX 103
LIBERAL        SUNNY    102  54  19 SW12      29.89S HX 100
$$

KSZ066>073-081>083-090>101-212300-
SOUTHEAST KANSAS

CITY           SKY/WX    TMP DP  RH WIND       PRES   REMARKS
CHANUTE        SUNNY     96  69  41 S16       29.91F HX 102
COFFEYVILLE    SUNNY     94  73  50 S20       29.91F HX 103
HUTCHINSON     SUNNY    101  65  30 S23G32    29.84F HX 104
NEWTON         SUNNY     97  66  36 S24G30    29.90S HX 100
PARSONS        MOSUNNY   94  73  50 S12G23    29.93S HX 103
WICHITA INTL   MOSUNNY   98  66  34 S24G35    29.85F HX 101
WICHITA JABRA  SUNNY     96  68  39 S21G33    29.87S HX 101
WINFIELD       SUNNY     97  67  37 S20G29    29.89F HX 101
$$

KSZ007>012-019>026-033>040-048>060-102>105-212300-
NORTHEAST KANSAS

CITY           SKY/WX    TMP DP  RH WIND       PRES   REMARKS
CONCORDIA      SUNNY     95  68  41 S18G24    29.81F HX  99
EMPORIA        SUNNY     96  69  41 S22       29.87S HX 102
LAWRENCE       MOSUNNY  100  70  37 S14       29.84F HX 107
MANHATTAN      SUNNY    100  68  35 S18G29    29.81S HX 105
OLATHE IND     SUNNY     96  70  42 S17       29.88S HX 102
OLATHE EXE     SUNNY     94  72  48 S14G22    29.88S HX 102
SALINA         SUNNY    100  67  33 S20G30    29.81S HX 105
TOPEKA BILLARD SUNNY     99  69  37 S15G23    29.83F HX 105
TOPEKA FORBES  SUNNY     99  67  35 S14G29    29.84F HX 103
$$


USA.gov is the U.S. government's official web portal to all federal, state and local government web resources and services.